Regional Weather Roundup
Issued by NWS Columbia, SC

Home | Current Version | Previous Version | Text Only | Print | Product List | Glossary On
Versions: 1 2 3 4 5 6 7 8 9 10 11 12 13 14 15 16 17 18 19 20 21 22 23 24 25 26 27 28 29 30 31 32 33 34 35 36 37 38 39 40 41 42 43 44 45 46 47 48 49 50
000
ASUS42 KCAE 281310
RWRCAE
REGIONAL WEATHER ROUNDUP
NATIONAL WEATHER SERVICE COLUMBIA SC
900 AM EDT WED SEP 28 2016

NOTE: "FAIR" INDICATES FEW OR NO CLOUDS BELOW 12,000 FEET WITH NO
SIGNIFICANT WEATHER AND/OR OBSTRUCTIONS TO VISIBILITY.

NOT ALL STATIONS ARE QUALITY CONTROLLED BY THE NATIONAL
WEATHER SERVICE. USE DATA WITH CAUTION...ESPECIALLY
DEWPOINT OBSERVATIONS.

SCZ001>056-GAZ040-063>065-077-281400-
...UPSTATE SOUTH CAROLINA...

CITY           SKY/WX    TMP DP  RH WIND       PRES   REMARKS
ANDERSON       CLOUDY    69  68  96 S5        29.94S
LIBERTY        PTSUNNY   70  68  93 CALM      29.94R
SPARTANBURG    PTSUNNY   68  64  88 CALM      29.94R
CLEMSON        CLOUDY    73  68  84 CALM      29.95S
GREENVILLE     MOSUNNY   71  67  87 W6        29.96R
GREENWOOD      SUNNY     71  67  87 CALM      29.96R
GREER          PTSUNNY   70  67  90 SW8       29.94R
ROCK HILL      SUNNY     67  65  93 SW5       29.96R
LAURENS        SUNNY     68  68 100 CALM      29.95R


...CENTRAL SOUTH CAROLINA...

CITY           SKY/WX    TMP DP  RH WIND       PRES   REMARKS
COLUMBIA APT   CLOUDY    74  68  81 CALM      29.92R
COLUMBIA OWENS CLOUDY    74  69  85 S5        29.93R
MCENTIRE ANGB  MOSUNNY   73  72  96 S3        29.93R
ORANGEBURG     SUNNY     73  71  93 S6        29.94R
SUMTER SHAW    PTSUNNY   74  70  86 S6        29.91R
NEWBERRY       SUNNY     70  66  88 CALM      29.97S
AIKEN          FAIR      72  66  83 S3        29.97R
MANNING        FAIR      73  70  88 S7        29.94R
LANCASTER      MOSUNNY   72  68  88 CALM      29.96R
WINNSBORO      SUNNY     68  68 100 CALM      29.95R


...EASTERN AND COASTAL SOUTH CAROLINA...

CITY           SKY/WX    TMP DP  RH WIND       PRES   REMARKS
MYRTLE BEACH   MOSUNNY   79  66  65 SW6       29.97R
N MYRTLE BCH   SUNNY     77  72  84 NW3       29.95R
CONWAY         FAIR      72  70  94 S3        29.96R FOG
MARION         FAIR      72  70  94 S6        29.95S
HARTSVILLE     PTSUNNY   70  70 100 S5        29.94R
FLORENCE       SUNNY     75  71  87 SW6       29.94R
DARLINGTON     CLOUDY    75  72  90 S8        29.94R
CHARLESTON APT MOSUNNY   78  73  84 SW8       29.95R
MOUNT PLEASANT FAIR      75  75 100 CALM      29.96R
WALTERBORO     SUNNY     77 N/A N/A SW7       29.96R
BEAUFORT       MOSUNNY   78  73  84 S6        29.96R


...EASTERN GEORGIA...

CITY           SKY/WX    TMP DP  RH WIND       PRES   REMARKS
AUGUSTA BUSH F SUNNY     72  69  90 S3        29.93R
AUGUSTA DANIEL SUNNY     74  66  76 S6        29.94R
THOMSON        SUNNY     74  71  92 CALM      29.98R
WASHINGTON     FAIR      75  73  94 CALM      29.94R
CLAXTON        FAIR      74  74 100 CALM      29.96R
STATESBORO     MOSUNNY   76  72  88 SW3       29.95S
SAVANNAH       PTSUNNY   75  70  84 SW3       29.96R


...SOUTHERN NORTH CAROLINA...

CITY           SKY/WX    TMP DP  RH WIND       PRES   REMARKS
CHARLOTTE      MOSUNNY   70  66  87 S9        29.95R
MONROE         MOSUNNY   69  65  86 SW3       29.94S
WADESBORO      SUNNY     71  67  89 CALM      29.94R FOG
RUTHERFORDTON  FOG       64  64 100 CALM      29.95R VSB<1/4
ASHEVILLE      CLOUDY    64  60  87 NW3       29.99S

$$



USA.gov is the U.S. government's official web portal to all federal, state and local government web resources and services.